Time,TemperatureF,DewpointF,PressureIn,WindDirection,WindDirectionDegrees,WindSpeedMPH,WindSpeedGustMPH,Humidity,HourlyPrecipIn,Conditions,Clouds,dailyrainin,SoftwareType,DateUTC
2013-09-14 00:14:00,67.0,57.0,29.83,SW,234,0.0,1.0,71,0.00,,,0.00,,2013-09-14 04:14:00,
2013-09-14 00:24:00,67.0,58.0,29.84,SW,234,0.0,1.0,72,0.00,,,0.00,,2013-09-14 04:24:00,
2013-09-14 00:43:00,66.0,57.0,29.84,SW,234,0.0,1.0,72,0.00,,,0.00,,2013-09-14 04:43:00,
2013-09-14 00:54:00,66.0,56.0,29.84,SW,234,0.0,1.0,71,0.00,,,0.00,,2013-09-14 04:54:00,
2013-09-14 01:13:00,66.0,56.0,29.85,SW,234,0.0,1.0,69,0.00,,,0.00,,2013-09-14 05:13:00,
2013-09-14 01:22:00,66.0,56.0,29.84,SW,234,0.0,0.0,69,0.00,,,0.00,,2013-09-14 05:22:00,
2013-09-14 01:43:00,65.0,55.0,29.85,SW,234,0.0,0.0,71,0.00,,,0.00,,2013-09-14 05:43:00,
2013-09-14 01:52:00,65.0,55.0,29.85,SW,234,0.0,0.0,70,0.00,,,0.00,,2013-09-14 05:52:00,
2013-09-14 02:12:00,65.0,55.0,29.85,SW,234,0.0,0.0,71,0.00,,,0.00,,2013-09-14 06:12:00,
2013-09-14 02:22:00,64.0,55.0,29.85,SW,234,0.0,0.0,72,0.00,,,0.00,,2013-09-14 06:22:00,
2013-09-14 02:42:00,64.0,55.0,29.86,SW,234,0.0,0.0,73,0.00,,,0.00,,2013-09-14 06:42:00,
2013-09-14 02:52:00,63.0,55.0,29.85,SW,234,0.0,0.0,74,0.00,,,0.00,,2013-09-14 06:52:00,
2013-09-14 03:12:00,63.0,55.0,29.86,SW,234,0.0,0.0,74,0.00,,,0.00,,2013-09-14 07:12:00,
2013-09-14 03:22:00,62.0,54.0,29.86,SW,234,0.0,0.0,76,0.00,,,0.00,,2013-09-14 07:22:00,
2013-09-14 03:42:00,62.0,55.0,29.86,SW,234,0.0,1.0,78,0.00,,,0.00,,2013-09-14 07:42:00,
2013-09-14 03:52:00,61.0,54.0,29.87,SW,234,0.0,0.0,78,0.00,,,0.00,,2013-09-14 07:52:00,
2013-09-14 04:12:00,61.0,55.0,29.87,SW,234,0.0,0.0,80,0.00,,,0.00,,2013-09-14 08:12:00,
2013-09-14 04:22:00,60.0,54.0,29.86,SW,234,0.0,0.0,81,0.00,,,0.00,,2013-09-14 08:22:00,
2013-09-14 04:42:00,60.0,54.0,29.86,SW,234,0.0,1.0,81,0.00,,,0.00,,2013-09-14 08:42:00,
2013-09-14 04:52:00,60.0,54.0,29.87,SW,234,0.0,1.0,80,0.00,,,0.00,,2013-09-14 08:52:00,
2013-09-14 05:12:00,59.0,53.0,29.87,SW,234,0.0,0.0,81,0.00,,,0.00,,2013-09-14 09:12:00,
2013-09-14 05:22:00,59.0,53.0,29.88,SW,234,0.0,1.0,81,0.00,,,0.00,,2013-09-14 09:22:00,
2013-09-14 05:43:00,59.0,53.0,29.88,SW,234,0.0,0.0,81,0.00,,,0.00,,2013-09-14 09:43:00,
2013-09-14 05:53:00,59.0,54.0,29.88,SW,234,0.0,1.0,82,0.00,,,0.00,,2013-09-14 09:53:00,
2013-09-14 06:12:00,59.0,54.0,29.88,SW,234,0.0,2.0,82,0.00,,,0.00,,2013-09-14 10:12:00,
2013-09-14 06:23:00,58.0,53.0,29.88,SW,234,0.0,1.0,82,0.00,,,0.00,,2013-09-14 10:23:00,
2013-09-14 06:52:00,58.0,53.0,29.91,SW,234,0.0,1.0,83,0.00,,,0.00,,2013-09-14 10:52:00,
2013-09-14 07:12:00,58.0,53.0,29.91,SW,234,0.0,1.0,84,0.00,,,0.00,,2013-09-14 11:12:00,
2013-09-14 07:22:00,58.0,53.0,29.92,SW,234,0.0,1.0,84,0.00,,,0.00,,2013-09-14 11:22:00,
2013-09-14 07:42:00,57.0,53.0,29.93,SW,234,0.0,1.0,85,0.00,,,0.00,,2013-09-14 11:42:00,
2013-09-14 07:52:00,57.0,53.0,29.93,SW,234,0.0,0.0,86,0.00,,,0.00,,2013-09-14 11:52:00,
2013-09-14 08:12:00,56.0,52.0,29.94,SW,234,0.0,1.0,87,0.00,,,0.00,,2013-09-14 12:12:00,
2013-09-14 08:22:00,57.0,53.0,29.95,SW,234,0.0,1.0,87,0.00,,,0.00,,2013-09-14 12:22:00,
2013-09-14 08:52:00,58.0,53.0,29.96,SW,234,0.0,2.0,83,0.00,,,0.00,,2013-09-14 12:52:00,
2013-09-14 09:12:00,59.0,53.0,29.96,SW,234,0.0,2.0,80,0.00,,,0.00,,2013-09-14 13:12:00,
2013-09-14 09:21:00,60.0,53.0,29.97,NNE,16,0.0,4.0,77,0.00,,,0.00,,2013-09-14 13:21:00,
2013-09-14 09:42:00,62.0,54.0,29.97,ENE,65,1.0,3.0,74,0.00,,,0.00,,2013-09-14 13:42:00,
2013-09-14 09:52:00,63.0,53.0,29.97,ENE,75,0.0,4.0,70,0.00,,,0.00,,2013-09-14 13:52:00,
2013-09-14 10:12:00,63.0,52.0,29.98,SSE,150,1.0,6.0,68,0.00,,,0.00,,2013-09-14 14:12:00,
2013-09-14 10:22:00,64.0,53.0,29.98,ENE,67,0.0,3.0,67,0.00,,,0.00,,2013-09-14 14:22:00,
2013-09-14 10:42:00,65.0,53.0,29.98,ENE,74,1.0,5.0,66,0.00,,,0.00,,2013-09-14 14:42:00,
2013-09-14 10:52:00,66.0,54.0,29.99,North,355,1.0,4.0,65,0.00,,,0.00,,2013-09-14 14:52:00,
2013-09-14 11:11:00,67.0,54.0,29.99,SE,130,1.0,3.0,64,0.00,,,0.00,,2013-09-14 15:11:00,
2013-09-14 11:22:00,68.0,55.0,29.99,NW,314,1.0,3.0,64,0.00,,,0.00,,2013-09-14 15:22:00,
2013-09-14 11:43:00,70.0,56.0,29.99,West,259,0.0,3.0,61,0.00,,,0.00,,2013-09-14 15:43:00,
2013-09-14 11:53:00,72.0,56.0,29.99,East,88,1.0,3.0,57,0.00,,,0.00,,2013-09-14 15:53:00,
2013-09-14 12:14:00,73.0,56.0,29.99,NNW,348,1.0,5.0,55,0.00,,,0.00,,2013-09-14 16:14:00,
2013-09-14 12:23:00,75.0,56.0,29.99,NW,319,0.0,4.0,52,0.00,,,0.00,,2013-09-14 16:23:00,
2013-09-14 12:44:00,75.0,56.0,29.99,NNE,26,2.0,10.0,52,0.00,,,0.00,,2013-09-14 16:44:00,
2013-09-14 12:54:00,75.0,56.0,29.99,SE,141,0.0,5.0,52,0.00,,,0.00,,2013-09-14 16:54:00,
2013-09-14 13:11:00,76.0,58.0,29.99,ESE,108,1.0,5.0,53,0.00,,,0.00,,2013-09-14 17:11:00,
2013-09-14 13:24:00,77.0,57.0,29.98,NE,51,1.0,6.0,50,0.00,,,0.00,,2013-09-14 17:24:00,
2013-09-14 13:43:00,76.0,57.0,29.98,NNW,347,1.0,3.0,52,0.00,,,0.00,,2013-09-14 17:43:00,
2013-09-14 13:54:00,76.0,57.0,29.98,WNW,284,1.0,3.0,52,0.00,,,0.00,,2013-09-14 17:54:00,
2013-09-14 14:12:00,77.0,57.0,29.98,West,276,0.0,7.0,51,0.00,,,0.00,,2013-09-14 18:12:00,
2013-09-14 14:22:00,77.0,59.0,29.97,NNE,32,1.0,6.0,53,0.00,,,0.00,,2013-09-14 18:22:00,
2013-09-14 14:43:00,78.0,59.0,29.97,SE,128,2.0,6.0,53,0.00,,,0.00,,2013-09-14 18:43:00,
2013-09-14 14:52:00,78.0,59.0,29.96,South,186,0.0,9.0,52,0.00,,,0.00,,2013-09-14 18:52:00,
2013-09-14 15:11:00,80.0,59.0,29.96,NNE,14,1.0,3.0,49,0.00,,,0.00,,2013-09-14 19:11:00,
2013-09-14 15:22:00,79.0,60.0,29.96,NE,51,0.0,4.0,53,0.00,,,0.00,,2013-09-14 19:22:00,
2013-09-14 15:42:00,79.0,60.0,29.96,NW,306,1.0,4.0,53,0.00,,,0.00,,2013-09-14 19:42:00,
2013-09-14 15:52:00,79.0,61.0,29.95,SE,132,1.0,10.0,54,0.00,,,0.00,,2013-09-14 19:52:00,
2013-09-14 16:12:00,80.0,62.0,29.95,SE,141,2.0,7.0,54,0.00,,,0.00,,2013-09-14 20:12:00,
2013-09-14 16:22:00,80.0,61.0,29.95,SE,131,1.0,4.0,52,0.00,,,0.00,,2013-09-14 20:22:00,
2013-09-14 16:42:00,79.0,60.0,29.95,ESE,122,3.0,6.0,52,0.00,,,0.00,,2013-09-14 20:42:00,
2013-09-14 16:52:00,79.0,61.0,29.95,ESE,112,0.0,8.0,54,0.00,,,0.00,,2013-09-14 20:52:00,
2013-09-14 17:12:00,80.0,61.0,29.95,North,351,0.0,3.0,53,0.00,,,0.00,,2013-09-14 21:12:00,
2013-09-14 17:22:00,80.0,62.0,29.95,NNE,26,0.0,4.0,55,0.00,,,0.00,,2013-09-14 21:22:00,
2013-09-14 17:44:00,79.0,60.0,29.96,SE,139,1.0,8.0,53,0.00,,,0.00,,2013-09-14 21:44:00,
2013-09-14 17:54:00,79.0,62.0,29.96,ENE,76,0.0,6.0,56,0.00,,,0.00,,2013-09-14 21:54:00,
2013-09-14 18:13:00,80.0,62.0,29.96,SE,124,0.0,3.0,54,0.00,,,0.00,,2013-09-14 22:13:00,
2013-09-14 18:24:00,79.0,62.0,29.96,SE,125,0.0,2.0,57,0.00,,,0.00,,2013-09-14 22:24:00,
2013-09-14 18:42:00,78.0,62.0,29.97,SE,125,0.0,2.0,58,0.00,,,0.00,,2013-09-14 22:42:00,
2013-09-14 18:53:00,78.0,62.0,29.97,SE,125,0.0,2.0,58,0.00,,,0.00,,2013-09-14 22:53:00,
2013-09-14 19:12:00,78.0,62.0,29.97,SE,125,0.0,1.0,59,0.00,,,0.00,,2013-09-14 23:12:00,
2013-09-14 19:23:00,78.0,63.0,29.98,SE,125,0.0,0.0,60,0.00,,,0.00,,2013-09-14 23:23:00,
2013-09-14 19:42:00,77.0,63.0,29.98,SE,125,0.0,1.0,62,0.00,,,0.00,,2013-09-14 23:42:00,
2013-09-14 19:53:00,77.0,63.0,29.98,SE,125,0.0,1.0,63,0.00,,,0.00,,2013-09-14 23:53:00,
2013-09-14 20:12:00,75.0,65.0,29.98,SE,125,0.0,0.0,71,0.00,,,0.00,,2013-09-15 00:12:00,
2013-09-14 20:22:00,74.0,65.0,29.98,SE,125,0.0,0.0,73,0.00,,,0.00,,2013-09-15 00:22:00,
2013-09-14 20:42:00,71.0,63.0,29.99,SE,125,0.0,0.0,76,0.00,,,0.00,,2013-09-15 00:42:00,
2013-09-14 20:53:00,70.0,63.0,29.99,SE,125,0.0,0.0,79,0.00,,,0.00,,2013-09-15 00:53:00,
2013-09-14 21:11:00,69.0,63.0,30.00,SE,125,0.0,0.0,81,0.00,,,0.00,,2013-09-15 01:11:00,
2013-09-14 21:22:00,67.0,61.0,30.01,SE,125,0.0,0.0,82,0.00,,,0.00,,2013-09-15 01:22:00,
2013-09-14 21:42:00,66.0,61.0,30.01,SE,125,0.0,0.0,84,0.00,,,0.00,,2013-09-15 01:42:00,
2013-09-14 21:52:00,66.0,62.0,30.02,SE,125,0.0,0.0,86,0.00,,,0.00,,2013-09-15 01:52:00,
2013-09-14 22:12:00,65.0,61.0,30.02,SE,125,0.0,0.0,86,0.00,,,0.00,,2013-09-15 02:12:00,
2013-09-14 22:22:00,64.0,60.0,30.03,SE,125,0.0,0.0,87,0.00,,,0.00,,2013-09-15 02:22:00,
2013-09-14 22:42:00,64.0,60.0,30.03,SE,125,0.0,0.0,88,0.00,,,0.00,,2013-09-15 02:42:00,
2013-09-14 22:52:00,63.0,59.0,30.03,SE,125,0.0,0.0,88,0.00,,,0.00,,2013-09-15 02:52:00,
2013-09-14 23:11:00,63.0,60.0,30.04,SE,125,0.0,0.0,90,0.00,,,0.00,,2013-09-15 03:11:00,
2013-09-14 23:22:00,63.0,60.0,30.04,SE,125,0.0,0.0,90,0.00,,,0.00,,2013-09-15 03:22:00,
2013-09-14 23:44:00,62.0,59.0,30.05,SE,125,0.0,0.0,90,0.00,,,0.00,,2013-09-15 03:44:00,
2013-09-14 23:55:00,62.0,59.0,30.05,SE,125,0.0,0.0,90,0.00,,,0.00,,2013-09-15 03:55:00,